Location: Tenerife
(28.2947°N, 16.5650°W)
Time: 22:43:10
(UTC+00:00)

Envisat - Visible Passes

Search period start: 22 February 2018 00:00
Search period end: 04 March 2018 00:00
Orbit: 764 x 766 km, 98.2° (Epoch: 22 February)

Date Brightness Start Highest point End Pass type
(mag) Time Alt. Az. Time Alt. Az. Time Alt. Az.
22 Feb 4.0 19:54:37 10° SE 19:58:38 24° ENE 20:02:41 10° NNE visible
22 Feb 4.9 21:33:13 10° SSW 21:37:28 27° W 21:41:44 10° NW visible
23 Feb 3.2 20:55:39 10° S 21:00:41 70° WSW 21:05:44 10° NNW visible
24 Feb 3.2 20:19:15 10° SE 20:24:03 46° ENE 20:28:53 10° N visible
24 Feb 5.7 22:00:36 10° SW 22:03:11 14° W 22:05:46 10° WNW visible
25 Feb 4.3 19:44:08 10° ESE 19:47:36 19° ENE 19:51:05 10° NNE visible
25 Feb 4.4 21:21:41 10° SSW 21:26:17 35° W 21:30:55 10° NNW visible
26 Feb 2.9 20:44:29 10° SSE 20:49:33 89° E 20:54:38 10° NNW visible
27 Feb 3.5 20:08:25 10° SE 20:12:59 35° ENE 20:17:33 10° N visible
27 Feb 5.4 21:48:31 10° SW 21:51:59 19° W 21:55:29 10° NW visible
28 Feb 4.6 19:33:54 10° E 19:36:35 15° ENE 19:39:15 10° NE visible
28 Feb 3.9 21:10:17 10° S 21:15:08 47° W 21:20:00 10° NNW visible
01 Mar 2.9 20:33:26 10° SSE 20:38:26 68° ENE 20:43:29 10° N visible
02 Mar 3.9 19:57:42 10° SE 20:01:55 27° ENE 20:06:08 10° NNE visible
02 Mar 5.0 21:36:43 10° SSW 21:40:48 24° W 21:44:52 10° NW visible
03 Mar 3.4 20:58:59 10° S 21:03:59 62° W 21:09:00 10° NNW visible
